This demonstration page uses our WeatherBlox Daily Observations layout. Learn more.

Left ArrowRight Arrow

39.29038, -76.61219

Hourly Observations for June 26, 2022

Temp ( °F °C ) Dew Point ( °F °C ) Humidity (%) Winds ( mph kmh ) Pressure ( in mb ) Visibility ( mi km ) Precip ( " mm )
12:54 am 00:54 Mostly Clear 74 23.3 66 18.9 76 76 SSW 3 6 30.11 1020 10 16 0.00 0.00
1:54 am 01:54 Clear 73 22.8 65 18.3 76 76 SSE 3 6 30.12 1020 10 16 0.00 0.00
2:54 am 02:54 Partly Cloudy 72 22.2 65 18.3 79 79 Calm 30.11 1020 10 16 0.00 0.00
3:54 am 03:54 Mostly Cloudy 71 21.7 65 18.3 81 81 Calm 30.11 1020 10 16 0.00 0.00
4:54 am 04:54 Mostly Cloudy 70 21.1 65 18.3 84 84 Calm 30.11 1020 10 16 0.00 0.00
5:54 am 05:54 Mostly Cloudy 71 21.7 64 17.8 79 79 Calm 30.12 1020 10 16 0.00 0.00
6:54 am 06:54 Mostly Cloudy 71 21.7 64 17.8 79 79 Calm 30.12 1020 10 16 0.00 0.00
7:54 am 07:54 Mostly Cloudy 73 22.8 64 17.8 74 74 VRB 3 6 30.13 1020 10 16 0.00 0.00
8:54 am 08:54 Partly Cloudy 76 24.4 65 18.3 69 69 SSW 7 11 30.11 1020 10 16 0.00 0.00
9:54 am 09:54 Partly Cloudy 80 26.7 65 18.3 60 60 SSW 6 9 30.09 1019 10 16 0.00 0.00
10:54 am 10:54 Sunny 85 29.4 65 18.3 51 51 VRB 6 9 30.09 1019 10 16 0.00 0.00
11:54 am 11:54 Mostly Sunny 87 30.6 62 16.7 43 43 SSW 7 11 30.08 1019 10 16 0.00 0.00
12:54 pm 12:54 Mostly Sunny 89 31.7 65 18.3 45 45 SSW 7 11 30.06 1018 10 16 0.00 0.00
1:54 pm 13:54 Mostly Sunny 90 32.2 65 18.3 44 44 S 9 15 30.04 1017 10 16 0.00 0.00
2:54 pm 14:54 Partly Cloudy 90 32.2 65 18.3 44 44 SSE 12 19 30.02 1017 10 16 0.00 0.00
3:54 pm 15:54 Partly Cloudy 89 31.7 65 18.3 45 45 SSE 9 15 30.01 1016 10 16 0.00 0.00
4:54 pm 16:54 Partly Cloudy 89 31.7 66 18.9 47 47 S 13 20 30.00 1016 10 16 0.00 0.00
5:54 pm 17:54 Mostly Cloudy 88 31.1 68 20 52 52 SE 13 20 29.99 1016 10 16 0.00 0.00
6:54 pm 18:54 Mostly Cloudy 84 28.9 68 20 59 59 SSE 12 19 29.98 1015 10 16 0.00 0.00
7:45 pm 19:45 Mostly Cloudy 82 27.8 67 19.4 60 60 W 10 17 30.00 1016 10 16 0.00 0.00
7:54 pm 19:54 Mostly Cloudy with Light Rain 82 27.8 67 19.4 60 60 SW 5 7 30.00 1016 9 14 0.00 0.00
8:54 pm 20:54 Mostly Cloudy with Light Rain 77 25 69 20.6 77 77 Calm 30.01 1016 10 16 0.00 0.00
9:54 pm 21:54 Mostly Cloudy 79 26.1 68 20 69 69 SSE 3 6 30.01 1016 10 16 0.00 0.00
10:54 pm 22:54 Mostly Cloudy 77 25 69 20.6 77 77 SE 8 13 30.01 1016 10 16 0.00 0.00
11:54 pm 23:54 Mostly Cloudy 77 25 69 20.6 77 77 SSE 7 11 30.00 1016 10 16 0.00 0.00

Powered by AerisWeather